SCP
0 0 0 0 0 0 -0 0 0 0 0 0 0 0 0 0 0 0 0 0 0 0 0 0 0 0 0 0 0 0 0 0 0 0 0 0 0 0 0 0 0 0 0
0 0 0 0 0 0 -0 0 0 0 0 0 0 0 0 0 0 0 0 0 0 0 0 0 0 0 0 0 0 0 0 0 0 0 0 0 0 0 0 0 0 0 0
-0 0 0 0 0 0 0 0 -0 0 0 0 0 0 0 0 0 0 0 0 0 0 0 0 0 0 0 0 0 0 0 0 0 0 0 0 0 0 0 0 0 0 0
0 0 0 0 0 0 0 0 0 0 0 0 0 0 0 0 0 0 0 0 0 0 0 0 0 0 0 0 0 0 0 0 0 0 0 0 0 0 0 0 0 0 0
0 0 0 0 0 0 0 0 0 0 0 0 0 0 0 0 0 0 0 0 0 0 0 0 0 0 0 0 0 0 0 0 0 0 0 0 0 0 0 0 0 0 0
0 0 0 0 0 0 0 0 0 0 0 0 0 0 0 0 0 0 0 0 0 0 0 0 0 0 0 0 0 0 0 0 0 0 0 0 0 0 0 0 0 0 0
0 0 0 0 0 0 0 0 0 0 0 0 0 -0 0 0 0 0 0 0 0 0 0 0 0 0 0 0 0 0 0 0 0 0 0 0 0 0 0 0 0 0 0
0 0 0 0 0 0 0 0 0 0 0 0 0 0 0 0 0 0 0 0 0 0 0 0 0 0 0 0 0 0 0 0 0 0 0 0 0 0 0 0 0 0 0
0 0 0 0 0 0 0 0 0 0 0 0 0 0 0 0 0 0 0 0 0 0 0 0 0 0 0 0 0 0 0 0 0 0 0 0 0 0 0 0 0 0 0
0 0 0 0 0 0 0 0 0 0 0 0 0 0 0 0 0 0 0 0 0 0 0 0 0 0 0 0 0 0 0 0 0 0 0 0 0 0 0 0 0 0 0
0 0 0 0 0 0 0 0 0 0 0 0 0 0 0 0 0 0 0 0 0 0 0 0 0 0 0 0 0 0 0 0 0 0 0 0 0 0 0 0 0 0 0
0 0 0 0 0 0 0 0 0 0 0 0 0 0 0 0 0 0 0 0 0 0 0 0 0 0 0 0 0 0 0 0 0 0 0 0 0 0 0 0 0 0 0
0 0 0 0 0 0 0 0 0 0 0 0 0 0 0 0 0 0 0 0 0 0 0 0 0 0 0 0 0 0 0 0 0 0 0 0 0 0 0 0 0 0 0
0 0 0 0 0 0 0 0 0 0 0 0 0 0 0 0 0 0 0 0 0 0 0 0 0 0 0 0 0 0 0 0 0 0 0 0 0 0 0 0 0 0 0
0 0 0 0 0 0 0 0 0 0 0 0 0 0 0 0 0 0 0 0 0 0 0 0 0 0 0 0 0 0 0 0 0 0 0 0 0 0 0 0 0 0 0
0 -0 0 0 0 0 0 0 0 0 0 0 0 0 0 0 0 0 0 0 0 0 0 0 0 0 0 0 0 0 0 0 0 0 0 0 0 0 0 0 0 0 0
0 0 0 0 0 0 0 0 0 0 0 0 0 0 0 0 0 0 0 0 0 0 0 0 0 0 0 0 0 0 0 0 0 0 0 0 0 0 0 0 0 0 0
0 0 0 0 0 0 0 0 0 0 0 0 0 0 0 0 0 0 0 0 0 0 0 0 0 0 0 0 0 0 0 0 0 0 0 0 0 0 0 0 0 0 0
0 0 0 0 0 0 0 0 0 0 0 0 0 0 0 0 0 0 0 0 0 0 0 0 0 0 0 0 0 0 0 0 0 0 0 0 0 0 0 0 0 0 0
0 0 0 0 0 0 0 0 0 0 0 0 0 0 0 0 0 0 0 0 0 0 0 0 0 0 0 0 0 0 0 0 0 0 0 0 0 0 0 0 0 0 0
0 0 0 0 0 0 0 0 0 0 0 0 0 0 0 0 0 0 0 0 0 0 0 0 0 0 0 0 0 0 0 0 0 0 0 0 0 0 0 0 0 0 0
0 0 0 0 0 0 0 0 0 0 0 0 0 0 0 0 0 0 0 0 0 0 0 0 0 0 0 0 0 0 0 0 0 0 0 0 0 0 0 0 0 0 0
0 0 0 0 0 0 0 0 0 0 0 0 0 0 0 0 0 0 0 0 0 0 0 0 0 0 0 0 0 0 0 0 0 0 0 0 0 0 0 0 0 0 0
0 0 0 0 0 0 0 0 0 0 0 0 0 0 0 0 0 0 0 0 0 0 0 0 0 0 0 0 0 0 0 0 0 0 0 0 0 0 0 0 0 0 0
0 0 0 0 0 0 0 0 0 0 0 0 0 0 0 0 0 0 0 0 0 0 0 0 0 0 0 0 0 0 0 0 0 0 0 0 0 0 0 0 0 0 0
0 0 0 0 0 0 0 0 0 0 0 0 0 0 0 0 0 0 0 0 0 0 0 0 0 0 0 0 0 0 0 0 0 0 0 0 0 0 0 0 0 0 0
Wind_Speed_500mb
35 33 37 44 49 59 57 40 54 43 59 71 63 56 57 58 55 54 52 52 50 49 46 42 42 43 43 41 41 40 40 37 35 36 27 20 20 22 23 19 16 15 14
39 37 38 50 64 66 55 46 60 44 33 69 70 64 62 61 59 57 55 53 52 51 48 45 44 43 43 43 44 44 44 39 42 33 28 18 14 16 18 20 17 15 16
39 40 36 44 63 73 69 60 52 47 46 65 66 61 52 58 57 60 56 56 56 55 51 47 45 44 44 45 46 45 46 46 45 31 15 15 14 28 20 21 21 21 16
34 38 42 43 58 77 80 68 62 47 35 61 79 68 69 72 71 65 64 66 63 56 54 51 48 47 46 46 45 45 46 42 48 46 39 27 24 15 18 24 25 24 21
29 33 37 41 52 59 71 78 63 52 54 77 77 75 76 78 71 73 74 70 61 58 59 57 54 50 48 45 44 46 47 46 42 49 44 37 28 26 18 25 32 33 30
15 28 33 37 41 52 57 83 86 81 68 66 79 102 102 89 77 75 77 72 69 68 67 62 57 53 51 49 46 44 45 48 44 42 45 47 42 38 26 16 28 30 31
13 20 32 38 40 50 62 66 81 88 86 64 81 102 103 101 84 82 77 75 77 78 74 68 66 63 56 52 51 48 48 49 48 48 48 43 41 29 34 22 30 32 25
8 9 21 35 42 48 61 61 68 76 87 93 87 89 99 94 89 87 84 77 79 78 77 73 69 64 60 58 57 54 52 52 53 50 50 46 43 43 37 38 40 30 24
18 7 10 23 38 51 58 63 65 64 70 72 72 85 106 99 93 90 87 82 79 82 80 78 76 72 65 63 61 58 55 55 55 53 53 51 47 47 43 42 44 37 28
11 10 4 7 26 40 46 57 62 67 63 70 71 73 75 89 96 97 96 89 80 82 82 81 80 77 74 68 64 61 58 58 56 55 56 57 53 51 48 48 48 44 29
12 11 5 6 13 29 41 46 53 59 61 58 60 65 65 74 70 93 93 93 90 89 87 81 81 79 74 69 67 65 62 60 59 58 58 58 55 54 51 51 50 50 48
11 8 13 14 10 13 33 46 46 53 57 66 69 73 80 79 76 85 86 89 97 100 89 84 82 77 76 73 70 70 66 65 62 62 60 61 58 57 52 52 51 51 49
10 14 9 17 13 15 16 25 35 46 51 55 68 65 83 88 87 81 78 71 90 91 88 89 84 79 75 75 75 75 73 70 66 65 62 62 61 62 59 55 52 51 51
13 16 14 14 16 15 18 20 28 41 53 58 62 64 70 73 79 78 76 62 66 74 91 87 87 86 80 81 77 78 78 76 72 69 68 64 65 63 61 59 55 52 53
15 14 16 19 22 18 19 24 23 31 44 54 59 69 67 60 50 65 70 71 71 79 77 74 74 77 78 74 84 82 76 82 77 73 73 70 65 63 62 59 58 57 57
18 11 18 22 24 21 20 21 21 20 25 41 52 58 55 54 55 55 65 67 68 64 68 64 59 70 64 67 66 63 77 78 75 80 81 75 71 69 64 61 56 55 61
20 12 19 22 25 25 21 21 23 24 22 27 35 39 44 51 53 50 55 65 60 59 64 66 56 62 69 62 57 54 61 76 76 81 85 81 77 73 65 61 54 52 52
21 9 18 16 16 19 17 17 20 22 26 25 27 30 37 39 43 45 50 49 51 51 51 51 45 48 39 40 32 31 26 34 46 81 85 81 73 68 67 62 62 58 53
15 11 10 8 10 12 11 9 13 14 12 13 22 26 28 27 30 36 37 41 44 43 45 43 48 58 47 47 43 37 49 49 50 66 73 78 81 71 62 56 60 56 57
11 11 9 9 6 6 5 8 7 7 9 11 13 15 19 27 27 30 37 38 37 36 35 34 38 40 49 60 50 48 40 44 53 48 67 74 77 86 72 64 59 56 59
19 22 20 17 15 12 10 8 7 3 3 4 5 9 13 18 24 28 26 26 29 28 29 31 32 33 39 45 52 47 48 45 51 40 58 69 76 78 81 85 80 67 57
30 30 29 27 28 26 23 25 21 16 12 11 8 9 9 10 11 11 14 16 19 20 22 23 27 31 36 34 36 44 44 44 37 36 48 64 72 74 79 82 76 68 67
38 35 35 36 36 37 35 36 32 26 24 21 20 17 14 11 12 13 11 11 9 7 4 4 6 9 15 29 41 50 45 39 39 38 49 63 64 62 61 66 73 66 56
41 37 39 42 44 43 43 41 31 27 26 27 25 23 21 18 16 14 13 9 8 6 3 1 3 8 8 11 18 26 31 29 28 31 35 44 53 57 59 61 60 55 56
41 40 41 43 44 40 37 30 28 24 25 26 26 24 22 23 22 19 16 14 10 5 2 0 2 1 2 5 10 15 20 23 26 26 29 37 43 53 58 57 53 55 55
51 50 47 45 43 40 39 33 28 25 25 26 27 26 23 22 22 22 21 18 15 11 9 7 5 2 3 7 10 14 17 18 21 27 35 41 48 53 46 49 50 53 55
Wind_Direction_500mb
231 221 208 215 212 202 203 207 209 207 210 197 198 196 200 200 202 201 199 197 196 193 191 190 188 185 182 182 177 176 171 170 166 160 157 161 169 172 176 176 183 181 177
217 202 198 206 193 192 195 191 202 193 242 205 210 206 207 206 207 205 203 200 200 198 196 195 194 190 185 185 184 185 177 180 178 170 154 150 173 193 183 182 177 186 193
220 199 199 202 201 198 192 198 204 206 216 213 203 203 203 205 206 208 208 207 206 203 201 199 198 195 194 195 192 193 190 188 184 190 150 161 183 176 200 195 190 198 192
220 205 198 204 205 207 207 204 198 210 199 202 206 206 211 212 214 212 210 210 208 204 204 204 202 200 200 201 200 199 199 201 196 189 200 178 179 166 166 204 199 199 195
211 206 198 199 208 213 211 208 207 204 194 197 210 214 217 221 219 213 213 212 210 208 208 208 206 205 206 207 206 206 205 209 210 210 211 196 191 174 189 180 200 207 203
192 203 202 197 205 210 217 212 213 204 205 205 207 211 218 221 217 219 217 213 211 211 211 211 210 210 210 211 211 213 214 214 214 219 220 217 212 206 191 204 205 203 208
190 194 199 197 204 204 210 214 218 214 213 210 207 214 217 218 218 222 223 217 213 214 214 212 212 212 211 214 215 215 217 219 218 222 223 222 222 222 216 197 198 183 205
167 196 211 209 201 215 209 213 217 218 224 216 217 219 219 214 215 225 227 226 223 222 218 215 217 216 214 215 219 219 220 222 225 225 226 229 224 223 216 202 206 179 212
105 92 229 221 209 216 217 211 218 219 220 226 226 225 228 228 218 224 229 228 227 227 226 221 218 218 219 220 223 225 224 226 228 229 229 230 228 227 220 213 216 211 197
73 77 96 219 216 217 228 220 221 225 224 229 234 231 235 235 229 225 233 233 230 230 230 228 225 220 221 222 224 228 228 230 231 231 231 230 230 230 225 223 221 214 210
26 4 26 167 202 212 225 234 220 225 223 219 232 232 229 235 231 232 236 241 238 232 233 233 231 229 228 227 226 230 231 232 234 234 233 234 231 232 228 227 226 222 215
21 37 30 0 301 216 207 215 227 225 223 224 221 226 234 234 238 241 242 244 240 235 230 233 237 234 234 234 233 231 233 234 235 236 235 234 231 233 232 232 227 226 219
5 356 316 332 317 280 254 230 238 238 234 229 230 231 243 242 237 238 240 241 238 241 240 235 234 236 235 237 239 237 236 238 241 240 240 238 235 234 232 232 230 226 224
330 321 322 315 317 289 259 258 231 236 235 232 227 232 238 249 246 242 234 241 250 244 242 243 242 240 236 241 236 239 237 238 240 243 243 241 239 241 236 233 232 229 227
301 314 310 306 308 286 269 254 247 229 233 233 231 231 233 244 253 240 241 245 250 246 250 245 251 242 243 243 240 234 240 236 239 242 243 243 240 242 239 237 231 229 229
300 292 302 307 305 295 274 247 238 236 238 237 242 241 239 235 229 246 244 240 237 243 254 250 262 256 250 249 240 248 240 240 237 243 243 242 240 237 233 234 234 237 231
301 297 295 300 292 289 281 251 231 229 235 234 241 243 237 240 244 244 243 242 236 238 243 243 256 256 248 247 243 250 257 248 237 242 242 244 241 237 230 228 227 229 232
296 304 310 293 271 269 280 259 241 227 236 225 235 241 246 242 243 244 241 237 237 240 242 237 234 249 246 245 237 259 265 264 265 254 242 243 241 236 232 226 221 219 220
247 252 255 248 232 240 253 253 244 241 230 197 218 232 232 238 241 244 245 240 237 238 238 238 239 238 235 230 241 254 254 255 249 249 249 247 243 228 224 226 224 219 219
179 165 138 122 147 185 190 227 220 212 204 215 224 223 225 229 234 234 237 238 242 243 242 241 242 242 244 238 235 238 245 252 246 245 251 243 236 224 215 216 219 220 226
126 122 115 108 98 102 115 119 108 119 149 169 204 212 229 228 227 228 227 226 227 229 232 233 235 235 235 216 222 229 244 251 251 249 247 237 228 223 219 216 215 215 219
104 100 99 96 94 88 93 96 101 103 114 124 136 139 148 147 146 171 189 196 196 205 216 225 228 227 227 227 226 228 240 243 255 264 255 237 231 226 216 215 219 219 222
96 94 93 90 88 92 89 91 88 92 94 95 93 91 92 98 110 106 109 108 118 137 178 208 243 229 224 232 236 235 232 240 256 262 252 240 231 220 215 218 223 225 220
87 89 91 87 85 87 91 91 85 91 95 96 94 92 92 95 97 99 100 111 98 60 31 74 218 242 252 244 239 230 232 235 246 251 249 244 232 226 224 227 233 215 224
83 83 83 82 79 83 84 84 84 87 90 92 91 87 85 84 83 84 85 87 91 90 94 307 332 332 231 218 231 232 225 225 233 239 228 216 214 211 217 222 216 224 227
90 87 84 87 82 85 83 81 86 91 94 93 89 87 86 84 83 68 77 81 76 76 77 67 52 46 257 235 213 226 228 232 232 224 224 219 217 218 219 221 226 232 233
Wind_Speed_850mb
35 33 37 44 49 59 57 40 54 43 59 71 63 56 57 58 55 54 52 52 50 49 46 42 42 43 43 41 41 40 40 37 35 36 27 20 20 22 23 19 16 15 14
39 37 38 50 64 66 55 46 60 44 33 69 70 64 62 61 59 57 55 53 52 51 48 45 44 43 43 43 44 44 44 39 42 33 28 18 14 16 18 20 17 15 16
39 40 36 44 63 73 69 60 52 47 46 65 66 61 52 58 57 60 56 56 56 55 51 47 45 44 44 45 46 45 46 46 45 31 15 15 14 28 20 21 21 21 16
34 38 42 43 58 77 80 68 62 47 35 61 79 68 69 72 71 65 64 66 63 56 54 51 48 47 46 46 45 45 46 42 48 46 39 27 24 15 18 24 25 24 21
29 33 37 41 52 59 71 78 63 52 54 77 77 75 76 78 71 73 74 70 61 58 59 57 54 50 48 45 44 46 47 46 42 49 44 37 28 26 18 25 32 33 30
15 28 33 37 41 52 57 83 86 81 68 66 79 102 102 89 77 75 77 72 69 68 67 62 57 53 51 49 46 44 45 48 44 42 45 47 42 38 26 16 28 30 31
13 20 32 38 40 50 62 66 81 88 86 64 81 102 103 101 84 82 77 75 77 78 74 68 66 63 56 52 51 48 48 49 48 48 48 43 41 29 34 22 30 32 25
8 9 21 35 42 48 61 61 68 76 87 93 87 89 99 94 89 87 84 77 79 78 77 73 69 64 60 58 57 54 52 52 53 50 50 46 43 43 37 38 40 30 24
18 7 10 23 38 51 58 63 65 64 70 72 72 85 106 99 93 90 87 82 79 82 80 78 76 72 65 63 61 58 55 55 55 53 53 51 47 47 43 42 44 37 28
11 10 4 7 26 40 46 57 62 67 63 70 71 73 75 89 96 97 96 89 80 82 82 81 80 77 74 68 64 61 58 58 56 55 56 57 53 51 48 48 48 44 29
12 11 5 6 13 29 41 46 53 59 61 58 60 65 65 74 70 93 93 93 90 89 87 81 81 79 74 69 67 65 62 60 59 58 58 58 55 54 51 51 50 50 48
11 8 13 14 10 13 33 46 46 53 57 66 69 73 80 79 76 85 86 89 97 100 89 84 82 77 76 73 70 70 66 65 62 62 60 61 58 57 52 52 51 51 49
10 14 9 17 13 15 16 25 35 46 51 55 68 65 83 88 87 81 78 71 90 91 88 89 84 79 75 75 75 75 73 70 66 65 62 62 61 62 59 55 52 51 51
13 16 14 14 16 15 18 20 28 41 53 58 62 64 70 73 79 78 76 62 66 74 91 87 87 86 80 81 77 78 78 76 72 69 68 64 65 63 61 59 55 52 53
15 14 16 19 22 18 19 24 23 31 44 54 59 69 67 60 50 65 70 71 71 79 77 74 74 77 78 74 84 82 76 82 77 73 73 70 65 63 62 59 58 57 57
18 11 18 22 24 21 20 21 21 20 25 41 52 58 55 54 55 55 65 67 68 64 68 64 59 70 64 67 66 63 77 78 75 80 81 75 71 69 64 61 56 55 61
20 12 19 22 25 25 21 21 23 24 22 27 35 39 44 51 53 50 55 65 60 59 64 66 56 62 69 62 57 54 61 76 76 81 85 81 77 73 65 61 54 52 52
21 9 18 16 16 19 17 17 20 22 26 25 27 30 37 39 43 45 50 49 51 51 51 51 45 48 39 40 32 31 26 34 46 81 85 81 73 68 67 62 62 58 53
15 11 10 8 10 12 11 9 13 14 12 13 22 26 28 27 30 36 37 41 44 43 45 43 48 58 47 47 43 37 49 49 50 66 73 78 81 71 62 56 60 56 57
11 11 9 9 6 6 5 8 7 7 9 11 13 15 19 27 27 30 37 38 37 36 35 34 38 40 49 60 50 48 40 44 53 48 67 74 77 86 72 64 59 56 59
19 22 20 17 15 12 10 8 7 3 3 4 5 9 13 18 24 28 26 26 29 28 29 31 32 33 39 45 52 47 48 45 51 40 58 69 76 78 81 85 80 67 57
30 30 29 27 28 26 23 25 21 16 12 11 8 9 9 10 11 11 14 16 19 20 22 23 27 31 36 34 36 44 44 44 37 36 48 64 72 74 79 82 76 68 67
38 35 35 36 36 37 35 36 32 26 24 21 20 17 14 11 12 13 11 11 9 7 4 4 6 9 15 29 41 50 45 39 39 38 49 63 64 62 61 66 73 66 56
41 37 39 42 44 43 43 41 31 27 26 27 25 23 21 18 16 14 13 9 8 6 3 1 3 8 8 11 18 26 31 29 28 31 35 44 53 57 59 61 60 55 56
41 40 41 43 44 40 37 30 28 24 25 26 26 24 22 23 22 19 16 14 10 5 2 0 2 1 2 5 10 15 20 23 26 26 29 37 43 53 58 57 53 55 55
51 50 47 45 43 40 39 33 28 25 25 26 27 26 23 22 22 22 21 18 15 11 9 7 5 2 3 7 10 14 17 18 21 27 35 41 48 53 46 49 50 53 55
Wind_Direction_850mb
231 221 208 215 212 202 203 207 209 207 210 197 198 196 200 200 202 201 199 197 196 193 191 190 188 185 182 182 177 176 171 170 166 160 157 161 169 172 176 176 183 181 177
217 202 198 206 193 192 195 191 202 193 242 205 210 206 207 206 207 205 203 200 200 198 196 195 194 190 185 185 184 185 177 180 178 170 154 150 173 193 183 182 177 186 193
220 199 199 202 201 198 192 198 204 206 216 213 203 203 203 205 206 208 208 207 206 203 201 199 198 195 194 195 192 193 190 188 184 190 150 161 183 176 200 195 190 198 192
220 205 198 204 205 207 207 204 198 210 199 202 206 206 211 212 214 212 210 210 208 204 204 204 202 200 200 201 200 199 199 201 196 189 200 178 179 166 166 204 199 199 195
211 206 198 199 208 213 211 208 207 204 194 197 210 214 217 221 219 213 213 212 210 208 208 208 206 205 206 207 206 206 205 209 210 210 211 196 191 174 189 180 200 207 203
192 203 202 197 205 210 217 212 213 204 205 205 207 211 218 221 217 219 217 213 211 211 211 211 210 210 210 211 211 213 214 214 214 219 220 217 212 206 191 204 205 203 208
190 194 199 197 204 204 210 214 218 214 213 210 207 214 217 218 218 222 223 217 213 214 214 212 212 212 211 214 215 215 217 219 218 222 223 222 222 222 216 197 198 183 205
167 196 211 209 201 215 209 213 217 218 224 216 217 219 219 214 215 225 227 226 223 222 218 215 217 216 214 215 219 219 220 222 225 225 226 229 224 223 216 202 206 179 212
105 92 229 221 209 216 217 211 218 219 220 226 226 225 228 228 218 224 229 228 227 227 226 221 218 218 219 220 223 225 224 226 228 229 229 230 228 227 220 213 216 211 197
73 77 96 219 216 217 228 220 221 225 224 229 234 231 235 235 229 225 233 233 230 230 230 228 225 220 221 222 224 228 228 230 231 231 231 230 230 230 225 223 221 214 210
26 4 26 167 202 212 225 234 220 225 223 219 232 232 229 235 231 232 236 241 238 232 233 233 231 229 228 227 226 230 231 232 234 234 233 234 231 232 228 227 226 222 215
21 37 30 0 301 216 207 215 227 225 223 224 221 226 234 234 238 241 242 244 240 235 230 233 237 234 234 234 233 231 233 234 235 236 235 234 231 233 232 232 227 226 219
5 356 316 332 317 280 254 230 238 238 234 229 230 231 243 242 237 238 240 241 238 241 240 235 234 236 235 237 239 237 236 238 241 240 240 238 235 234 232 232 230 226 224
330 321 322 315 317 289 259 258 231 236 235 232 227 232 238 249 246 242 234 241 250 244 242 243 242 240 236 241 236 239 237 238 240 243 243 241 239 241 236 233 232 229 227
301 314 310 306 308 286 269 254 247 229 233 233 231 231 233 244 253 240 241 245 250 246 250 245 251 242 243 243 240 234 240 236 239 242 243 243 240 242 239 237 231 229 229
300 292 302 307 305 295 274 247 238 236 238 237 242 241 239 235 229 246 244 240 237 243 254 250 262 256 250 249 240 248 240 240 237 243 243 242 240 237 233 234 234 237 231
301 297 295 300 292 289 281 251 231 229 235 234 241 243 237 240 244 244 243 242 236 238 243 243 256 256 248 247 243 250 257 248 237 242 242 244 241 237 230 228 227 229 232
296 304 310 293 271 269 280 259 241 227 236 225 235 241 246 242 243 244 241 237 237 240 242 237 234 249 246 245 237 259 265 264 265 254 242 243 241 236 232 226 221 219 220
247 252 255 248 232 240 253 253 244 241 230 197 218 232 232 238 241 244 245 240 237 238 238 238 239 238 235 230 241 254 254 255 249 249 249 247 243 228 224 226 224 219 219
179 165 138 122 147 185 190 227 220 212 204 215 224 223 225 229 234 234 237 238 242 243 242 241 242 242 244 238 235 238 245 252 246 245 251 243 236 224 215 216 219 220 226
126 122 115 108 98 102 115 119 108 119 149 169 204 212 229 228 227 228 227 226 227 229 232 233 235 235 235 216 222 229 244 251 251 249 247 237 228 223 219 216 215 215 219
104 100 99 96 94 88 93 96 101 103 114 124 136 139 148 147 146 171 189 196 196 205 216 225 228 227 227 227 226 228 240 243 255 264 255 237 231 226 216 215 219 219 222
96 94 93 90 88 92 89 91 88 92 94 95 93 91 92 98 110 106 109 108 118 137 178 208 243 229 224 232 236 235 232 240 256 262 252 240 231 220 215 218 223 225 220
87 89 91 87 85 87 91 91 85 91 95 96 94 92 92 95 97 99 100 111 98 60 31 74 218 242 252 244 239 230 232 235 246 251 249 244 232 226 224 227 233 215 224
83 83 83 82 79 83 84 84 84 87 90 92 91 87 85 84 83 84 85 87 91 90 94 307 332 332 231 218 231 232 225 225 233 239 228 216 214 211 217 222 216 224 227
90 87 84 87 82 85 83 81 86 91 94 93 89 87 86 84 83 68 77 81 76 76 77 67 52 46 257 235 213 226 228 232 232 224 224 219 217 218 219 221 226 232 233